Location: Bernhardsweiler
(49.0852°N, 10.2195°E)
Time: 08:19:58
(UTC+00:00)

Daily predictions for brighter satellites

Satellite Brightness Start Highest point End
(mag) Time Altitude Azimuth Time Altitude Azimuth Time Altitude Azimuth
Cosmos 1607 4.4 16:56:45 10° S 17:02:25 41° ESE 17:08:09 10° NE
USA 267 3.4 16:56:00 10° NE 17:02:34 79° NNW 17:09:06 10° WSW
Cosmos 1864 Rocket 4.5 16:56:33 10° N 17:02:40 69° ENE 17:08:47 10° SSE
Cosmos 1356 Rocket 3.9 16:59:15 10° N 17:02:50 33° ENE 17:06:27 10° SE
Cosmos 2297 Rocket 3.6 17:01:56 10° SE 17:05:27 17° E 17:08:59 10° ENE
USA 290 2.9 17:03:07 10° S 17:06:01 33° ESE 17:08:57 10° NE
Cosmos 1441 Rocket 3.1 17:02:47 10° SSW 17:06:07 72° WNW 17:09:28 10° N
In-Cosmos 22 Rocket 4.2 17:01:06 10° S 17:06:34 84° E 17:12:14 10° NNE
Cosmos 841 Rocket 4.5 17:02:32 10° SW 17:07:33 49° WNW 17:12:33 10° NNE
Cosmos 1814 Rocket 4.3 17:03:59 10° S 17:09:03 49° ESE 17:14:06 10° NNE
SAR-Lupe-4 3.6 17:06:05 10° SSE 17:09:34 55° ENE 17:13:05 10° N
SAR-Lupe-5 4.1 17:07:10 10° NNE 17:09:43 60° ESE 17:12:09 10° S
ATLAS 3B R/B 4.3 17:02:50 10° NW 17:10:08 45° WSW 17:17:02 10° S
Cosmos 1125 Rocket 4.1 17:08:06 10° N 17:12:53 35° ENE 17:17:38 10° ESE
IRS-1C 4.4 17:07:59 10° S 17:13:19 77° WSW 17:18:40 10° NNW
Cosmos 1455 Rocket 4.4 17:10:48 10° NNE 17:13:46 18° ENE 17:16:42 10° ESE
Cosmos 2221 Rocket 4.5 17:15:41 10° SSE 17:19:29 28° E 17:23:19 10° NNE
YAOGAN 1 2.6 17:16:33 10° SSE 17:20:42 55° ENE 17:24:53 10° N
Cosmos 2123 Rocket 4.0 17:15:20 10° S 17:21:39 84° E 17:28:00 10° N
Okean 2 Rocket 3.3 17:18:28 10° N 17:22:43 44° ENE 17:26:54 10° SSE
Cosmos 1900 4.5 17:17:56 10° SW 17:23:03 83° NW 17:28:08 10° NE
NOSS 3-3 (C) 4.3 17:18:40 10° S 17:23:21 35° ESE 17:28:46 10° NE
NOAA 6 4.4 17:18:54 10° SE 17:23:44 43° ENE 17:28:37 10° N
Spot 4 Rocket 4.1 17:20:59 10° SE 17:25:57 54° ENE 17:30:57 10° N
Okean 1 Rocket 3.4 17:21:59 10° N 17:26:12 41° ENE 17:30:20 10° SE
COSMOS 2428 2.7 17:22:40 10° NNW 17:28:25 74° ENE 17:34:08 10° SE
Cosmos 1980 4.1 17:26:42 10° NNW 17:32:04 41° NE 17:37:23 10° ESE
Sich 1 Rocket 3.9 17:27:52 10° N 17:32:16 46° ENE 17:36:39 10° SSE
ARIANE 5 R/B 3.5 17:27:38 10° S 17:32:37 51° W 17:37:34 10° NNW
Cosmos 158 Rocket 3.7 17:32:11 10° SSW 17:37:02 76° ESE 17:41:54 10° NNE
Aureole 3 Rocket 3.3 17:33:36 10° N 17:37:41 36° ENE 17:40:54 10° SE
Cosmos 2237 Rocket 2.6 17:32:18 10° NNW 17:37:42 42° NE 17:43:04 10° ESE
ATLAS 5 CENTAUR R/B 2.7 17:35:04 10° NW 17:39:14 50° SW 17:44:22 10° SSE
Cosmos 192 4.2 17:34:31 10° NNW 17:39:26 83° ENE 17:44:19 10° SSE
SeaSat 1 3.6 17:34:52 10° S 17:39:34 47° WSW 17:44:19 10° NW
Cosmos 1378 Rocket 3.6 17:35:52 10° S 17:40:11 83° W 17:44:30 10° N
Resurs 01 Rocket 1.9 17:36:54 10° SE 17:41:03 43° ENE 17:45:14 10° N
SKYMED 2 3.6 17:38:39 10° NNE 17:43:02 87° WNW 17:47:22 10° SSW
GP-B 3.7 17:39:45 10° S 17:44:04 61° W 17:48:25 10° N
Cosmos 2219 Rocket 4.2 17:42:19 10° NW 17:47:12 31° WSW 17:52:02 10° SSW
COSMO-SKYMED 1 2.4 17:43:14 10° NNE 17:47:20 63° E 17:51:24 10° S
Cosmos 2228 4.1 17:45:37 10° NNE 17:48:51 21° ENE 17:49:16 21° ENE
Cosmos 2292 Rocket 4.3 17:47:03 10° SW 17:49:43 35° WNW 17:52:32 10° N
PSLV R/B 3.3 17:46:46 10° SSE 17:50:52 72° ENE 17:54:59 10° N
NOSS 3-3 (A) 3.7 17:46:55 10° SSW 17:52:00 64° SE 17:57:36 12° NE
Cosmos 2322 4.1 17:46:56 10° NNW 17:52:38 69° WSW 17:58:17 10° SSE
Cosmos 1447 Rocket 4.5 17:47:39 10° S 17:53:38 59° E 17:59:39 10° NNE
Resurs 1-3 4.0 17:50:22 10° S 17:54:38 65° W 17:58:55 10° NNW
USA 306 1.2 17:51:53 10° WNW 17:54:40 70° SSW 17:55:03 52° SSE
Cosmos 1025 Rocket 2.9 17:54:12 10° S 17:58:30 85° E 18:02:51 10° N
SJ-7 4.2 17:54:58 10° S 17:58:40 80° WSW 18:02:22 10° NNW
Cosmos 2285 Rocket 4.0 17:53:08 10° NNW 17:59:36 72° ENE 18:05:59 10° SSE
SL-16 R/B 3.3 17:56:23 10° N 18:00:56 24° NE 18:02:27 21° ENE
Cosmos 1375 Rocket 4.5 17:56:46 10° SSW 18:03:04 69° ESE 18:09:12 12° NE
Cosmos 2227 Rocket 3.4 18:00:05 10° SSE 18:03:35 21° ESE 18:03:35 21° ESE
SJ-6B 2.5 18:05:12 15° SE 18:07:50 51° ENE 18:11:12 10° N
SPOT 5 3.6 18:08:21 28° E 18:09:45 33° ENE 18:14:13 10° N
NOSS 3-4 (A) 3.9 18:03:28 10° NW 18:09:56 59° NE 18:15:10 21° ESE
NOSS 3-4 (C) 3.9 18:03:43 10° NW 18:10:12 59° NE 18:15:23 21° ESE
CZ-2D R/B 4.4 18:08:47 10° S 18:12:32 47° W 18:16:24 10° NNW
Cosmos 1674 Rocket 4.3 18:10:28 10° SSW 18:14:45 53° WNW 18:19:06 10° N
Cosmos 1513 Rocket 4.4 18:12:14 10° N 18:18:29 70° ENE 18:24:49 10° SSE
Cosmos 1867 4.5 18:17:58 10° WSW 18:23:13 47° NW 18:27:56 13° NNE
CZ-4 R/B 3.2 18:28:09 16° NNE 18:28:09 16° NNE 18:29:09 10° N
CZ-4B R/B 4.1 18:26:45 27° NE 18:26:45 27° NE 18:30:40 10° N
ATLAS 2AS CENTAUR R/B 4.2 18:20:32 10° WNW 18:26:17 27° NNW 18:31:16 13° NE
Helios 1A Rocket 4.3 18:28:45 19° S 18:28:45 19° S 18:29:46 10° S
Lacrosse 5 rocket 2.2 18:24:08 10° W 18:27:24 35° NNW 18:28:21 29° NNE
Atlas Centaur 2 4.5 18:23:56 10° SSW 18:27:45 15° S 18:30:59 11° SSE
Meteor 1-31 Rocket 4.1 18:32:59 23° N 18:32:59 23° N 18:34:28 10° N
ADEOS 4.5 18:32:00 29° NE 18:32:00 29° NE 18:35:46 10° N
CZ-4C R/B 2.2 18:28:22 10° SW 18:32:39 62° NW 18:36:09 21° NNE
IRAS Rocket 4.3 18:28:51 10° SSE 18:34:27 80° WSW 18:40:07 10° NNW
CRYOSAT 2 4.4 18:32:44 10° N 18:37:39 81° W 18:42:32 10° S
USA 267 3.9 18:41:48 26° NE 18:45:12 47° N 18:51:24 10° W
Cosmos 1464 Rocket 3.9 18:39:51 10° N 18:46:16 78° E 18:52:34 10° SSE
CSL-04 Debris 4.1 18:44:38 40° SE 18:46:32 65° ENE 18:51:55 10° N
ERS-1 Rocket 4.2 18:48:49 27° NNE 18:48:49 27° NNE 18:51:35 10° N
Cosmos 2297 Rocket 2.1 18:43:02 10° SSW 18:48:42 86° WNW 18:52:37 21° NNE
CSL-04 Rocket 3.4 18:47:26 38° SE 18:49:28 73° ENE 18:54:44 10° NNW
Cosmos 1570 Rocket 3.9 18:44:22 10° SSW 18:49:39 87° ESE 18:52:48 25° NNE
Cosmos 2344 3.8 18:43:47 10° S 18:51:01 40° ESE 18:51:12 39° ESE
BREEZE-M DEB (TANK) 4.5 18:47:06 10° W 18:51:12 63° SSW 18:56:52 28° SE
Cosmos 1455 Rocket 3.7 18:47:36 10° NNW 18:51:48 53° W 18:55:58 10° S
Cosmos 1975 Rocket 3.9 18:47:59 10° S 18:50:38 36° S 18:50:38 36° S
DNEPR-1 R/B 3.9 18:48:59 10° NW 18:53:46 68° NE 18:54:12 65° E
PAYLOAD B 4.1 19:05:27 66° ENE 19:05:27 66° ENE 19:11:00 10° N
Cosmos 2208 Rocket 3.9 19:01:36 10° SSW 19:06:50 88° ESE 19:07:29 70° NNE
Terra 3.6 19:11:53 20° N 19:11:53 20° N 19:13:28 10° N
NOSS 3-3 (C) 4.4 19:08:40 10° WSW 19:13:56 52° NW 19:16:44 30° NNE
Resurs 01 Rocket 4.0 19:14:06 10° SW 19:17:36 23° W 19:21:07 10° NW
Cosmos 2237 Rocket 3.4 19:16:29 10° NW 19:21:43 39° WSW 19:25:52 15° S
Cosmos 44 Rocket 4.1 19:18:05 10° SW 19:21:21 43° SW 19:21:21 43° SW
Cosmos 773 Rocket 4.3 19:19:00 10° SSW 19:24:14 65° WNW 19:25:06 55° NNW
Cosmos 2228 4.2 19:22:04 10° NNW 19:25:37 39° WNW 19:25:37 39° WNW
Orbus 7S? 4.4 19:22:22 10° WNW 19:28:57 54° WSW 19:28:57 54° WSW
SL-16 R/B 2.8 19:40:01 10° NNW 19:44:20 53° NW 19:44:20 53° NW
SPOT 5 4.2 19:47:22 37° WSW 19:47:36 37° W 19:52:15 10° NNW
Cosmos 2227 Rocket 3.2 19:42:02 10° SW 19:45:30 38° SW 19:45:30 38° SW
BREEZE-M DEB (TANK) 4.2 19:58:26 10° W 20:10:45 58° WSW 20:10:45 58° WSW
ATLAS 2AS CENTAUR R/B 4.2 20:13:52 10° NW 20:18:40 25° N 20:18:40 25° N
CZ-4C R/B 4.1 20:18:03 10° WNW 20:21:07 22° NNW 20:21:07 22° NNW
USA 267 4.2 20:29:08 41° NNW 20:29:08 41° NNW 20:33:48 10° WNW
Cosmos 2297 Rocket 4.3 20:29:21 10° W 20:33:35 21° NW 20:34:29 20° NNW
